Location: *
(34.6903°N, 135.5184°E)
Time: 16:25:32
(UTC+00:00)

Cosmos 1666 - Pass Details

Date: 22 September 2019
Orbit: 498 x 521 km, 82.5° (Epoch: 13 October)

Event Time Altitude Azimuth Distance (km) Brightness Sun altitude
Rises 20:08:20 0° 335° (NNW) 2,606 6.1 -8.6°
Reaches altitude 10° 20:10:52 10° 318° (NW) 1,721 5.0 -8.1°
Maximum altitude 20:13:38 20° 271° (W) 1,224 4.0 -7.5°
Drops below altitude 10° 20:16:25 10° 223° (SW) 1,721 4.9 -6.9°
Sets 20:18:57 0° 206° (SSW) 2,607 6.0 -6.4°
